Gold Country Challenge - Toss 22 - 38 Miles

Station: Lake Pardee CA - T Race

Distance: 38.465 Miles    

Release: 17-Oct-2020 07:50

Weather Release: Hazy Sun/Smoky to SE & S    Arrival: Mostly Clear

Wind at Release: East 10-12     Wind at Arrival: Calm

Temp at Release: 62°    Temp at Arrival: °

Lofts: 101

Birds: 341

Clocked: 341

1 Group Today. About 10 late returnees yesterday left home. Smoky SE/S
Drops Pos Breeder Pigeon Name Color Sex Ent Arrival Speed To Win Elg PdChampAOC
1 Gomez Loft - CA 2631-AU20-CHP BBWF H 1 08:41:37.60 1311.311 00:00:00 Yes
2 Marengo Creek Farms - GA 3525-AU20-MCF BBWF H 1 08:41:41.40 1309.704 00:00:04 Yes
3 Wonderwings Lofts - CA 1883-AU20-MAN Sky Warrior 2 PIED H 1 08:41:42.80 1309.113 00:00:05 Yes
4 John Gutierrez - NM 0229-AU20-GUTZ 931/Dyk BBSP H 1 08:41:43.90 1308.649 00:00:06 Yes
5 F-R-E-L Syndicate - CA 7016-AU20-AA Francis 016 BB H 1 08:41:45.50 1307.975 00:00:08 Yes
6 Dud/Tx Mx/Ramp - TX 20128-AU20-PUEB BC H 1 08:41:50.10 1306.040 00:00:13 Yes
7 Geronimo Loft - MI 5788-AU20-CRAZ BB H 1 08:41:51.50 1305.453 00:00:14 Yes
8 Sierra Ranch - CA 0251-AU20-SR Golden Rain BC H 1 08:41:52.60 1304.991 00:00:15 Yes
9 Bieche-Stevenson - CA 0297-AU20-BIE BB H 1 08:41:53.10 1304.782 00:00:16 Yes
10 American Star Racing Pigeons - CA 0115-AU20-ASTR BB H 1 08:42:02.50 1300.854 00:00:25 Yes
11 B S Lofts - CA 13322-AU20-JEDD 232 & 26-2 BC H 1 08:42:05.00 1299.813 00:00:27 Yes
12 Marengo Creek Farms - GA 3538-AU20-MCF BB H 2 08:42:10.40 1297.571 00:00:33 Yes
13 Callahan Loft - MO 0954-AU20-AA WHIT H 1 08:42:13.40 1296.329 00:00:36 Yes
14 Denis Eastwood - CA 2109-AU20-HANG BB H 1 08:42:15.10 1295.626 00:00:37 Yes
15 Gomez Loft - CA 2641-AU20-CHP BB H 2 08:42:16.20 1295.171 00:00:39 Yes
16 Sierra Ranch - CA 0292-AU20-SR Pure Gold BB H 2 08:42:16.90 1294.882 00:00:39 Yes
17 Stark Loft - CA 2010-AU20-HANG Prospector BBSP C 1 08:42:18.90 1294.057 00:00:41 Yes
18 Emmalyn & Carelyn Loft - CA 0708-AU20-CEYX ~ CEYX 708 ~ BB H 1 08:42:21.90 1292.822 00:00:44 Yes
19 Kereru Whare - CA 1171-AU20-FSC BB H 1 08:42:25.00 1291.547 00:00:47 Yes
20 Loft By Augustine - KS 0121-AU20-SWK Monopolizer BBWF H 1 08:42:27.80 1290.398 00:00:50 Yes
21 Peters - GA 0029-AU20-PETE BLACK JACK DC H 1 08:42:28.30 1290.193 00:00:51 Yes
22 Kereru Whare - CA 1121-AU20-FSC BB H 2 08:42:29.00 1289.907 00:00:51 Yes
23 Partridge Family Loft - CA 2227-AU20-PASO BC H 1 08:42:29.30 1289.784 00:00:52 Yes
24 Crazy Al & Chris Melucci - CO 15705-AU20-AA DCWF H 1 08:42:30.20 1289.415 00:00:53 Yes
25 Al Shulman - CA 2108-AU20-WSJ BC H 1 08:42:31.30 1288.965 00:00:54 Yes
26 Callahan Loft - MO 0938-AU20-AA BB H 2 08:42:31.70 1288.802 00:00:54 Yes
27 Perfection Loft - KS 13049-AU20-AA BBWF H 1 08:42:32.20 1288.597 00:00:55 Yes
28 Pellizzari Loft - CA 1003-AU20-WSJ BC H 1 08:42:34.50 1287.658 00:00:57 Yes
29 Emmalyn & Carelyn Loft - CA 0701-AU20-CEYX ~ CEYX 701 ~ BC H 2 08:42:34.80 1287.535 00:00:57 Yes
30 Skychargers 2 - CA 0109-AU20-CORO PIED H 1 08:42:35.20 1287.372 00:00:58 Yes
31 Skylinerpl.Com - UT 35819-AU20-JEDD "Troy's Girl" SLTW H 1 08:42:37.00 1286.638 00:00:59 Yes
32 White Arrow Loft - IL 0567-AU20-LCC BB H 1 08:42:39.30 1285.701 00:01:02 Yes
33 A P C Loft - TX 20109-AU20-APC BB H 1 08:42:40.40 1285.254 00:01:03 Yes
34 F-R-E-L Syndicate - CA 16905-AU20-JEDD Reb 905 BB H 2 08:42:41.10 1284.969 00:01:04 Yes
35 Dads Loft - CA 20306-AU20-LAKE SILV H 1 08:42:41.60 1284.766 00:01:04 Yes
36 Tapia Lofts - NM 21290-CU20-OSH 1193/19011 BBSP H 1 08:42:46.10 1282.940 00:01:09 Yes
37 R & D Racing 2 - ON 4407-AU20-AA BC H 1 08:42:47.50 1282.373 00:01:10 Yes
38 Cloux Loft - CO 20716-AU20-FH BB H 1 08:42:51.80 1280.634 00:01:14 Yes
39 Portland Loft - OR 2514-AU20-PNW BC H 1 08:42:52.80 1280.231 00:01:15 Yes
40 Skychargers 2 - CA 0102-AU20-CORO BB H 2 08:42:53.30 1280.029 00:01:16 Yes
41 Racing Pigeon Mall - WA 1078-AU20-RPM BB H 1 08:42:53.80 1279.827 00:01:16 Yes
42 PNWC - ID 1209-AU20-IDA Pair# J12 BB H 1 08:42:54.90 1279.384 00:01:17 Yes
43 Dud/Tx Mx/Ramp - TX 9468-AU20-AA BB H 2 08:42:55.40 1279.182 00:01:18 Yes
44 Denis Eastwood - CA 2100-AU20-HANG BBWF H 2 08:42:55.70 1279.062 00:01:18 Yes
45 H & H Flying Circus - CA 0304-AU20-ML BC H 1 08:42:56.10 1278.901 00:01:18 Yes
46 Denis Eastwood - CA 2110-AU20-HANG BB H 3 08:42:56.40 1278.780 00:01:19 Yes
47 Goshentown Lofts - TN 8902-AU20-NASH BC H 1 08:42:56.80 1278.619 00:01:19 Yes
48 Sparks Trio Syn - NV 0317-AU20-RENO BB H 1 08:42:57.30 1278.418 00:01:20 Yes
49 A-Lo Loft/Nemelka - UT 0011-AU20-NRPL Argenton X 8013 LC C 1 08:42:58.40 1277.975 00:01:21 Yes
50 Perfection Loft - KS 13047-AU20-AA BB H 2 08:43:00.60 1277.091 00:01:23 Yes
51 Rob Wilson - CA 45305-AU20-ARPU BB H 1 08:43:02.00 1276.529 00:01:24 Missing
52 Stark Loft - CA 2019-AU20-HANG Cruz MLY C 2 08:43:07.40 1274.367 00:01:30 Yes
53 Christopher Loft - UT 20120-AU20-GS BB H 1 08:43:07.90 1274.167 00:01:30 Yes
54 Big Game Loft - CA 0336-AU20-EAV BC H 1 08:43:08.40 1273.967 00:01:31 Yes
55 House Of Paine - CA 0248-AU20-HOP 95872x59132 SLT H 1 08:43:13.70 1271.853 00:01:36 Yes
56 Genesis Syndicate Loft - AZ 0146-AU20-GENP BB H 1 08:43:14.20 1271.654 00:01:37 Yes
57 Igor & Sons Loft - OR 0228-AU20-OTC BC H 1 08:43:15.40 1271.176 00:01:38 Yes
58 Silicon Valley Syndicate - CA 20185-AU20-SVS DC H 1 08:43:15.80 1271.017 00:01:38 Yes
59 F-R-E-L Syndicate - CA 16303-AU20-AA Whell's 303 BC H 3 08:43:19.10 1269.706 00:01:42 Yes
60 Genesis Syndicate Loft - AZ 0575-AU20-GENS BB H 2 08:43:21.20 1268.873 00:01:44 Yes
61 Sparks Trio Syn - NV 0314-AU20-RENO BC H 2 08:43:23.10 1268.120 00:01:46 Yes
62 American Star Racing Pigeons - CA 0116-AU20-ASTR BB H 2 08:43:24.00 1267.764 00:01:46 Yes
63 A P C Loft - TX 20139-AU20-APC BB H 2 08:43:25.90 1267.013 00:01:48 Yes
64 Tapia Lofts - NM 21294-CU20-OSH 18003/902 BBSP H 2 08:43:28.30 1266.065 00:01:51 Yes
65 Perfection Loft - KS 13050-AU20-AA BB H 3 08:43:33.60 1263.977 00:01:56 Lost
66 Genesis Syndicate Loft - AZ 0560-AU20-GENS BCWF H 3 08:43:39.70 1261.582 00:02:02 Yes
67 Stark Loft - CA 2015-AU20-HANG Rose Gold RSMK H 3 08:43:40.40 1261.308 00:02:03 Yes
68 Silicon Valley Syndicate - CA 20067-AU20-SVS BB H 2 08:43:40.80 1261.151 00:02:03 Yes
69 Stark Loft - CA 2008-AU20-HANG Blue Gold BB C 4 08:43:44.80 1259.587 00:02:07 Yes
70 B S Lofts - CA 13318-AU20-JEDD 807 & 906 BB H 2 08:43:46.30 1259.001 00:02:09 Yes
71 Sugaronni Loft - CA 25500-AU20-FOYS BB H 1 08:43:48.50 1258.143 00:02:11 Yes
72 Bob Niemeyer - CA 1046-AU20-AUB BB H 1 08:43:49.70 1257.676 00:02:12 Yes
73 Skylinerpl.Com - UT 35821-AU20-JEDD "Belser's Girl" BC H 2 08:43:53.60 1256.159 00:02:16 Yes
74 Sierra Ranch - CA 0247-AU20-SR Pot of gold BCWF H 3 08:43:56.70 1254.956 00:02:19 Yes
75 Double J Loft Of Tx. - TX 0105-AU20-WACO 263 X 1611 BC H 1 08:43:58.20 1254.375 00:02:21 Yes
76 Winwin Loft - CA 7305-AU20-JEDD RC H 1 08:44:00.60 1253.446 00:02:23 Yes
77 Double J Loft Of Tx. - TX 0106-AU20-WACO 263 X 1611 BC H 2 08:44:03.50 1252.325 00:02:26 Yes
78 Oddiebeng Loft - CA 9670-AU20-FOYS DC H 1 08:44:04.00 1252.132 00:02:26 Yes
79 Dud/Tx Mx/Ramp - TX 9459-AU20-AA BB H 3 08:44:06.70 1251.091 00:02:29 Yes
80 American Star Racing Pigeons - CA 0123-AU20-ASTR BB H 3 08:44:09.10 1250.167 00:02:31 Yes
81 Winwin Loft - CA 7304-AU20-JEDD BB H 2 08:44:09.60 1249.974 00:02:32 Yes
82 White Arrow Loft - IL 0575-AU20-LCC BB H 2 08:44:11.20 1249.359 00:02:34 Yes
83 John Hedderson - CA 0033-AU20-HEDD 801x8002 BB H 1 08:44:11.70 1249.167 00:02:34 Lost
84 Jim Lauritzen - CA 0210-AU20-EAV BBSP H 1 08:44:13.70 1248.399 00:02:36 Yes
85 Wonderwings Lofts - CA 2040-AU20-MAN Lightning BBWF H 2 08:44:15.50 1247.709 00:02:38 Yes
86 Bob Niemeyer - CA 1031-AU20-AUB BB H 2 08:44:17.90 1246.790 00:02:40 Yes
87 John V. Partridge - CA 2115-AU20-PASO King Bond BB H 1 08:44:22.30 1245.108 00:02:45 Yes
88 Jacks Galaxy - FL 0003-AU20-XXX 43759 x 1360 PIED H 1 08:44:22.60 1244.994 00:02:45 Yes
89 White Arrow Loft - IL 0560-AU20-LCC MYPD H 3 08:44:24.20 1244.383 00:02:47 Yes
90 John & Omelio - NM 20065-AU20-NMRP BB H 1 08:44:27.70 1243.050 00:02:50 Yes
91 Kereru Whare - CA 1172-AU20-FSC BB H 3 08:44:28.70 1242.670 00:02:51 Yes
92 John Gutierrez - NM 0243-AU20-GUTZ Rudy/Gld BB H 2 08:44:34.40 1240.507 00:02:57 Yes
92 Dan & Greg Coury - AZ 0501-AU20-AONE BB H 1 08:44:34.40 1240.507 00:02:57 Yes
94 Just Lucky - CA 0334-AU20-HAY BC H 1 08:44:35.50 1240.090 00:02:58 Yes
95 B S Lofts - CA 13312-AU20-JEDD 232 & 26-1 BB H 3 08:44:36.30 1239.788 00:02:59 Yes
96 PNWC - ID 0032-AU20-PNWC Pair# 13 BC H 2 08:44:38.50 1238.956 00:03:01 Yes
97 Racing Pigeon Mall - WA 1008-AU20-RPM BB H 2 08:44:39.20 1238.691 00:03:02 Yes
98 A P C Loft - TX 20128-AU20-APC BBWF H 3 08:44:40.70 1238.125 00:03:03 Yes
99 Euro Dead - CA 29153-AU20-JEDD C-6640 DV-7768 BB H 1 08:44:43.00 1237.257 00:03:05 Yes
100 Double Diamond Tack & Feed - CA 2021-AU20-HANG Double D BB H 1 08:44:43.80 1236.956 00:03:06 Yes

There are 337 bird records

Note: These Race Results are unofficial and subject to change until verified by the Race Committee and declared final.